GW0980 Weather Reports


time (UTC)temp
C
wind
direction
speed
KPH
gust
KPH
rain 1hr
cm
rain 24hr
cm
rain mn
cm
humidity
%
barometer
mb
20260507064537 11 258 6.4 14.5 0.00 0.00 0.00 82 1021.9
20260507063054 11 281 8.0 12.9 0.00 0.00 0.00 83 1021.9
20260507061546 11 276 8.0 17.7 0.00 0.00 0.00 82 1022.0
20260507060046 11 281 8.0 12.9 0.00 0.00 0.00 83 1022.0
20260507054542 11 248 8.0 14.5 0.00 0.00 0.00 83 1021.9
20260507053039 11 269 9.7 17.7 0.00 0.00 0.00 83 1021.9
20260507051537 11 256 9.7 20.9 0.00 0.00 0.00 83 1021.9
20260507050044 11 267 11.3 19.3 0.00 0.00 0.00 83 1021.9
20260507044544 11 276 9.7 19.3 0.00 0.00 0.00 83 1021.9
20260507043039 11 264 9.7 17.7 0.00 0.00 0.00 82 1022.1
20260507041538 11 273 9.7 22.5 0.00 0.00 0.00 82 1021.9
20260507040037 11 272 11.3 22.5 0.00 0.00 0.00 82 1021.7
20260507034545 11 270 9.7 17.7 0.00 0.00 0.00 82 1021.6
20260507033042 12 268 11.3 27.4 0.00 0.00 0.00 81 1021.6
20260507031542 12 264 11.3 24.1 0.00 0.00 0.00 81 1021.5
20260507030042 12 271 11.3 20.9 0.00 0.00 0.00 80 1021.3
20260507024538 12 278 12.9 17.7 0.00 0.00 0.00 80 1021.3
20260507023037 12 274 11.3 22.5 0.00 0.00 0.00 79 1021.1
20260507021545 12 269 12.9 20.9 0.00 0.00 0.00 79 1021.3
20260507020044 12 271 12.9 24.1 0.00 0.00 0.00 78 1021.1
20260507014549 13 312 11.3 30.6 0.00 0.00 0.00 76 1021.4
20260507013048 13 280 12.9 29.0 0.00 0.00 0.00 75 1021.4
20260507011540 13 290 17.7 24.1 0.00 0.00 0.00 74 1021.5
20260507010052 14 266 14.5 22.5 0.00 0.00 0.00 74 1021.5
20260507004537 14 290 9.7 19.3 0.00 0.00 0.00 74 1021.5
20260507003039 14 269 16.1 27.4 0.00 0.00 0.00 73 1021.3
20260507001552 15 267 14.5 33.8 0.00 0.00 0.00 72 1021.3
20260507000042 15 255 16.1 25.7 0.00 0.00 0.00 71 1021.2
20260506234539 15 270 12.9 22.5 0.00 0.00 0.00 70 1021.3
20260506233100 15 264 11.3 22.5 0.00 0.00 0.00 71 1021.3
20260506231544 15 263 14.5 32.2 0.00 0.00 0.00 71 1021.3
20260506230048 15 257 14.5 25.7 0.00 0.00 0.00 70 1021.3
20260506224543 16 281 16.1 25.7 0.00 0.00 0.00 70 1021.3
20260506223038 16 278 14.5 41.8 0.00 0.00 0.00 69 1021.4
20260506221545 16 262 12.9 19.3 0.00 0.00 0.00 68 1021.3
20260506220042 16 269 16.1 30.6 0.00 0.00 0.00 69 1021.1
20260506214552 16 271 16.1 27.4 0.00 0.00 0.00 69 1021.0
20260506213044 16 294 16.1 25.7 0.00 0.00 0.00 68 1021.0
20260506211542 16 313 9.7 24.1 0.00 0.00 0.00 68 1021.1
20260506210041 16 212 9.7 24.1 0.00 0.00 0.00 68 1021.1
20260506204539 16 281 12.9 22.5 0.00 0.00 0.00 69 1021.1
20260506203037 16 273 12.9 25.7 0.00 0.00 0.00 69 1021.1
20260506201540 16 273 11.3 16.1 0.00 0.00 0.00 70 1021.1
20260506200047 15 284 12.9 22.5 0.00 0.00 0.00 72 1021.4
20260506194546 15 276 11.3 16.1 0.00 0.00 0.00 72 1021.4
20260506193043 15 277 12.9 19.3 0.00 0.00 0.00 73 1021.4
20260506191542 15 352 12.9 20.9 0.00 0.00 0.00 73 1021.5
20260506190046 15 67 9.7 17.7 0.00 0.00 0.00 74 1021.4
20260506184544 15 275 9.7 20.9 0.00 0.00 0.00 73 1021.3
20260506183039 15 280 6.4 11.3 0.00 0.00 0.00 75 1021.4
20260506181540 15 268 3.2 12.9 0.00 0.00 0.00 75 1021.3
20260506180044 14 291 6.4 12.9 0.00 0.00 0.00 76 1021.5
20260506174537 13 260 6.4 14.5 0.00 0.00 0.00 78 1021.4
20260506173044 13 299 8.0 16.1 0.00 0.00 0.00 78 1021.4
20260506171551 13 264 4.8 6.4 0.00 0.00 0.00 78 1021.2
20260506170044 13 0 1.6 4.8 0.00 0.00 0.00 79 1021.2
20260506164553 13 311 6.4 11.3 0.00 0.00 0.00 79 1021.3
20260506163043 13 272 3.2 8.0 0.00 0.00 0.00 80 1021.4
20260506161546 12 282 3.2 8.0 0.00 0.00 0.00 81 1021.2
20260506160046 12 261 3.2 9.7 0.00 0.00 0.00 81 1021.1
20260506154551 12 261 1.6 6.4 0.00 0.00 0.00 82 1021.1
20260506153042 11 0 3.2 6.4 0.00 0.00 0.00 83 1020.9
20260506151542 11 250 0.0 6.4 0.00 0.00 0.00 83 1020.7
20260506150049 11 304 4.8 17.7 0.00 0.00 0.00 84 1020.9
20260506144546 11 285 8.0 16.1 0.00 0.00 0.00 84 1021.0
20260506143038 11 262 8.0 25.7 0.00 0.00 0.00 85 1020.9
20260506141554 11 263 8.0 17.7 0.00 0.00 0.00 85 1020.8
20260506140042 11 281 8.0 20.9 0.00 0.00 0.00 86 1020.4
20260506134546 11 277 6.4 19.3 0.00 0.00 0.00 87 1020.3
20260506133046 10 257 4.8 11.3 0.00 0.00 0.00 87 1020.2
20260506131539 10 300 4.8 14.5 0.00 0.00 0.00 87 1020.2
20260506130037 10 294 4.8 14.5 0.00 0.00 0.00 87 1020.0
20260506124550 11 275 4.8 11.3 0.00 0.00 0.00 86 1019.9
20260506123046 11 276 6.4 17.7 0.00 0.00 0.00 85 1019.7
20260506121551 11 275 6.4 9.7 0.00 0.00 0.00 85 1019.7
20260506120107 11 279 6.4 12.9 0.00 0.00 0.00 85 1020.0
20260506114544 11 275 8.0 14.5 0.00 0.00 0.00 85 1019.8
20260506113039 11 276 9.7 19.3 0.00 0.00 0.00 85 1019.7
20260506111540 11 272 4.8 16.1 0.00 0.00 0.00 86 1019.6
20260506110041 11 314 8.0 22.5 0.00 0.00 0.00 86 1019.3
20260506104541 11 289 9.7 16.1 0.00 0.00 0.00 86 1019.2
20260506103037 11 284 8.0 19.3 0.00 0.00 0.00 86 1019.1
20260506101544 11 263 9.7 19.3 0.00 0.00 0.00 87 1019.0
20260506100042 11 265 8.0 19.3 0.00 0.00 0.00 87 1018.8
20260506094546 11 268 8.0 14.5 0.00 0.00 0.00 88 1018.8
20260506093047 10 286 8.0 17.7 0.00 0.00 0.00 89 1018.6
20260506091542 10 283 8.0 12.9 0.00 0.00 0.00 89 1018.5
20260506090241 10 282 4.8 11.3 0.00 0.00 0.00 90 1018.7
20260506084542 10 307 3.2 8.0 0.00 0.00 0.00 90 1018.6
20260506083047 10 305 3.2 11.3 0.00 0.00 0.00 90 1018.6
20260506081538 10 292 1.6 8.0 0.00 0.00 0.00 90 1018.4
20260506073041 11 280 3.2 8.0 0.00 0.00 0.00 88 1018.1
20260506071551 11 299 1.6 6.4 0.00 0.00 0.00 88 1017.9
20260506070104 11 292 3.2 8.0 0.00 0.00 0.00 88 1017.9